Time,TemperatureF,DewpointF,PressureIn,WindDirection,WindDirectionDegrees,WindSpeedMPH,WindSpeedGustMPH,Humidity,HourlyPrecipIn,Conditions,Clouds,dailyrainin,SoftwareType,DateUTC
2013-02-24 00:01:00,26.0,26.0,29.86,SSW,210,0.0,0.0,100,0.03,,,-99.99,,2013-02-24 05:01:00,
2013-02-24 00:11:00,26.0,26.0,29.86,SSW,210,0.0,0.0,100,0.03,,,-99.99,,2013-02-24 05:11:00,
2013-02-24 00:22:00,26.0,26.0,29.86,SSW,210,0.0,0.0,100,0.03,,,-99.99,,2013-02-24 05:22:00,
2013-02-24 00:32:00,26.0,26.0,29.86,SSW,210,0.0,0.0,100,0.03,,,-99.99,,2013-02-24 05:32:00,
2013-02-24 00:42:00,26.0,26.0,29.86,SSW,210,0.0,0.0,100,0.03,,,-99.99,,2013-02-24 05:42:00,
2013-02-24 00:52:00,26.0,26.0,29.86,SSW,210,0.0,0.0,100,0.03,,,-99.99,,2013-02-24 05:52:00,
2013-02-24 01:02:00,26.0,26.0,29.86,WSW,252,1.0,0.0,100,0.03,,,-99.99,,2013-02-24 06:02:00,
2013-02-24 01:11:00,26.0,26.0,29.86,WSW,252,1.0,0.0,100,0.03,,,-99.99,,2013-02-24 06:11:00,
2013-02-24 01:21:00,26.0,26.0,29.86,WSW,252,0.0,0.0,100,0.03,,,-99.99,,2013-02-24 06:21:00,
2013-02-24 01:32:00,26.0,26.0,29.86,WSW,252,0.0,0.0,100,0.03,,,-99.99,,2013-02-24 06:32:00,
2013-02-24 01:42:00,26.0,26.0,29.86,WSW,252,0.0,0.0,100,0.03,,,-99.99,,2013-02-24 06:42:00,
2013-02-24 01:52:00,26.0,26.0,29.86,WSW,252,0.0,0.0,100,0.03,,,-99.99,,2013-02-24 06:52:00,
2013-02-24 02:01:00,26.0,26.0,29.87,WSW,252,0.0,0.0,100,0.03,,,-99.99,,2013-02-24 07:01:00,
2013-02-24 02:12:00,26.0,26.0,29.87,WSW,252,0.0,0.0,100,0.03,,,-99.99,,2013-02-24 07:12:00,
2013-02-24 02:22:00,26.0,26.0,29.87,SW,214,0.0,0.0,100,0.03,,,-99.99,,2013-02-24 07:22:00,
2013-02-24 02:32:00,26.0,26.0,29.88,SW,214,0.0,0.0,100,0.03,,,-99.99,,2013-02-24 07:32:00,
2013-02-24 02:42:00,26.0,26.0,29.88,SW,214,0.0,0.0,100,0.03,,,-99.99,,2013-02-24 07:42:00,
2013-02-24 02:52:00,27.0,27.0,29.88,West,259,0.0,0.0,100,0.03,,,-99.99,,2013-02-24 07:52:00,
2013-02-24 03:01:00,27.0,27.0,29.89,West,259,0.0,0.0,100,0.03,,,-99.99,,2013-02-24 08:01:00,
2013-02-24 03:11:00,27.0,27.0,29.89,West,259,0.0,0.0,100,0.03,,,-99.99,,2013-02-24 08:11:00,
2013-02-24 03:22:00,27.0,27.0,29.89,WSW,242,0.0,0.0,100,0.03,,,-99.99,,2013-02-24 08:22:00,
2013-02-24 03:32:00,27.0,27.0,29.89,West,260,0.0,0.0,100,0.03,,,-99.99,,2013-02-24 08:32:00,
2013-02-24 03:42:00,27.0,27.0,29.89,West,260,0.0,0.0,100,0.03,,,-99.99,,2013-02-24 08:42:00,
2013-02-24 03:54:00,27.0,27.0,29.89,West,260,0.0,0.0,100,0.03,,,-99.99,,2013-02-24 08:54:00,
2013-02-24 04:01:00,27.0,27.0,29.89,West,260,0.0,0.0,100,0.03,,,-99.99,,2013-02-24 09:01:00,
2013-02-24 04:11:00,27.0,27.0,29.89,West,260,0.0,0.0,100,0.03,,,-99.99,,2013-02-24 09:11:00,
2013-02-24 04:22:00,27.0,27.0,29.89,West,260,0.0,0.0,100,0.03,,,-99.99,,2013-02-24 09:22:00,
2013-02-24 04:32:00,27.0,27.0,29.89,West,260,0.0,0.0,100,0.03,,,-99.99,,2013-02-24 09:32:00,
2013-02-24 04:42:00,27.0,27.0,29.89,West,260,0.0,0.0,100,0.03,,,-99.99,,2013-02-24 09:42:00,
2013-02-24 04:51:00,27.0,27.0,29.89,West,260,0.0,0.0,100,0.03,,,-99.99,,2013-02-24 09:51:00,
2013-02-24 05:01:00,27.0,27.0,29.89,West,260,0.0,0.0,100,0.03,,,-99.99,,2013-02-24 10:01:00,
2013-02-24 05:11:00,27.0,27.0,29.89,West,260,0.0,0.0,100,0.03,,,-99.99,,2013-02-24 10:11:00,
2013-02-24 05:22:00,27.0,27.0,29.89,WSW,248,3.0,0.0,100,0.03,,,-99.99,,2013-02-24 10:22:00,
2013-02-24 05:32:00,27.0,27.0,29.89,WSW,255,0.0,0.0,100,0.03,,,-99.99,,2013-02-24 10:32:00,
2013-02-24 05:42:00,27.0,27.0,29.89,WSW,255,0.0,0.0,100,0.03,,,-99.99,,2013-02-24 10:42:00,
2013-02-24 05:52:00,27.0,27.0,29.90,West,264,0.0,0.0,100,0.03,,,-99.99,,2013-02-24 10:52:00,
2013-02-24 06:01:00,28.0,28.0,29.91,West,259,4.0,0.0,100,0.03,,,-99.99,,2013-02-24 11:01:00,
2013-02-24 06:11:00,28.0,28.0,29.91,West,259,4.0,0.0,100,0.03,,,-99.99,,2013-02-24 11:11:00,
2013-02-24 06:22:00,28.0,28.0,29.91,NW,326,3.0,0.0,100,0.03,,,-99.99,,2013-02-24 11:22:00,
2013-02-24 06:32:00,28.0,28.0,29.91,SW,224,4.0,0.0,100,0.03,,,-99.99,,2013-02-24 11:32:00,
2013-02-24 06:42:00,28.0,28.0,29.91,SW,224,4.0,0.0,100,0.03,,,-99.99,,2013-02-24 11:42:00,
2013-02-24 06:53:00,28.0,28.0,29.92,WSW,255,3.0,0.0,100,0.03,,,-99.99,,2013-02-24 11:53:00,
2013-02-24 07:02:00,28.0,28.0,29.93,WSW,250,4.0,0.0,100,0.03,,,-99.99,,2013-02-24 12:02:00,
2013-02-24 07:11:00,28.0,28.0,29.93,WSW,250,4.0,0.0,100,0.03,,,-99.99,,2013-02-24 12:11:00,
2013-02-24 07:22:00,28.0,28.0,29.93,WSW,249,5.0,0.0,100,0.03,,,-99.99,,2013-02-24 12:22:00,
2013-02-24 07:32:00,29.0,29.0,29.93,NNW,328,3.0,0.0,100,0.03,,,-99.99,,2013-02-24 12:32:00,
2013-02-24 07:46:00,29.0,29.0,29.93,NNW,328,3.0,0.0,100,0.03,,,-99.99,,2013-02-24 12:46:00,
2013-02-24 08:15:00,29.0,29.0,29.95,WSW,245,2.0,0.0,100,0.03,,,-99.99,,2013-02-24 13:15:00,
2013-02-24 08:27:00,29.0,29.0,29.95,West,278,1.0,0.0,100,0.03,,,-99.99,,2013-02-24 13:27:00,
2013-02-24 08:34:00,29.0,29.0,29.96,West,278,0.0,0.0,100,0.03,,,-99.99,,2013-02-24 13:34:00,
2013-02-24 08:45:00,29.0,29.0,29.96,West,278,0.0,0.0,100,0.03,,,-99.99,,2013-02-24 13:45:00,
2013-02-24 08:53:00,29.0,29.0,29.96,WNW,293,4.0,0.0,100,0.03,,,-99.99,,2013-02-24 13:53:00,
2013-02-24 09:05:00,30.0,30.0,29.96,WSW,250,5.0,0.0,100,0.03,,,-99.99,,2013-02-24 14:05:00,
2013-02-24 09:14:00,30.0,30.0,29.96,WSW,250,5.0,0.0,100,0.03,,,-99.99,,2013-02-24 14:14:00,
2013-02-24 09:25:00,30.0,30.0,29.97,WSW,248,1.0,0.0,100,0.03,,,-99.99,,2013-02-24 14:25:00,
2013-02-24 09:34:00,30.0,30.0,29.98,WSW,246,6.0,0.0,100,0.03,,,-99.99,,2013-02-24 14:34:00,
2013-02-24 09:44:00,30.0,30.0,29.98,WSW,246,6.0,0.0,100,0.03,,,-99.99,,2013-02-24 14:44:00,
2013-02-24 09:53:00,31.0,31.0,29.98,West,266,4.0,0.0,100,0.03,,,-99.99,,2013-02-24 14:53:00,
2013-02-24 10:04:00,31.0,31.0,29.98,West,263,4.0,0.0,100,0.03,,,-99.99,,2013-02-24 15:04:00,
2013-02-24 10:14:00,31.0,31.0,29.98,West,263,4.0,0.0,100,0.03,,,-99.99,,2013-02-24 15:14:00,
2013-02-24 10:24:00,31.0,31.0,29.99,SW,236,6.0,0.0,100,0.03,,,-99.99,,2013-02-24 15:24:00,
2013-02-24 10:32:00,32.0,32.0,30.00,NNW,340,8.0,0.0,100,0.03,,,-99.99,,2013-02-24 15:32:00,
2013-02-24 10:42:00,32.0,32.0,30.00,NNW,340,8.0,0.0,100,0.03,,,-99.99,,2013-02-24 15:42:00,
2013-02-24 10:52:00,32.0,32.0,30.00,WNW,294,10.0,0.0,100,0.03,,,-99.99,,2013-02-24 15:52:00,
2013-02-24 11:02:00,32.0,32.0,30.00,NW,322,9.0,0.0,98,0.03,,,-99.99,,2013-02-24 16:02:00,
2013-02-24 11:12:00,32.0,32.0,30.00,NW,322,9.0,0.0,98,0.03,,,-99.99,,2013-02-24 16:12:00,
2013-02-24 11:22:00,33.0,32.0,30.01,NW,322,8.0,0.0,97,0.03,,,-99.99,,2013-02-24 16:22:00,
2013-02-24 11:32:00,33.0,31.0,30.01,NW,311,13.0,0.0,93,0.03,,,-99.99,,2013-02-24 16:32:00,
2013-02-24 11:42:00,33.0,31.0,30.01,NW,311,13.0,0.0,93,0.03,,,-99.99,,2013-02-24 16:42:00,
2013-02-24 11:52:00,33.0,31.0,30.01,NW,311,13.0,0.0,93,0.03,,,-99.99,,2013-02-24 16:52:00,
2013-02-24 12:01:00,34.0,31.0,30.01,WNW,298,8.0,0.0,90,0.03,,,-99.99,,2013-02-24 17:01:00,
2013-02-24 12:11:00,34.0,31.0,30.01,WNW,298,8.0,0.0,90,0.03,,,-99.99,,2013-02-24 17:11:00,
2013-02-24 12:22:00,34.0,31.0,30.01,WNW,298,8.0,0.0,90,0.03,,,-99.99,,2013-02-24 17:22:00,
2013-02-24 12:32:00,34.0,29.0,30.02,NNW,329,11.0,0.0,83,0.03,,,-99.99,,2013-02-24 17:32:00,
2013-02-24 12:42:00,34.0,29.0,30.02,NNW,329,11.0,0.0,83,0.03,,,-99.99,,2013-02-24 17:42:00,
2013-02-24 12:53:00,34.0,30.0,30.02,NNW,333,10.0,0.0,84,0.03,,,-99.99,,2013-02-24 17:53:00,
2013-02-24 13:02:00,34.0,30.0,30.02,NNW,333,10.0,0.0,84,0.03,,,-99.99,,2013-02-24 18:02:00,
2013-02-24 13:11:00,34.0,30.0,30.02,NNW,333,10.0,0.0,84,0.03,,,-99.99,,2013-02-24 18:11:00,
2013-02-24 13:22:00,34.0,30.0,30.02,NNW,333,10.0,0.0,84,0.03,,,-99.99,,2013-02-24 18:22:00,
2013-02-24 13:52:00,35.0,30.0,30.02,North,352,11.0,0.0,81,0.03,,,-99.99,,2013-02-24 18:52:00,
2013-02-24 14:01:00,35.0,30.0,30.02,North,352,11.0,0.0,81,0.03,,,-99.99,,2013-02-24 19:01:00,
2013-02-24 14:12:00,35.0,30.0,30.02,North,352,11.0,0.0,81,0.03,,,-99.99,,2013-02-24 19:12:00,
2013-02-24 14:22:00,35.0,30.0,30.02,NW,323,10.0,0.0,81,0.03,,,-99.99,,2013-02-24 19:22:00,
2013-02-24 14:32:00,35.0,30.0,30.02,NW,323,10.0,0.0,81,0.03,,,-99.99,,2013-02-24 19:32:00,
2013-02-24 14:42:00,35.0,30.0,30.02,NW,323,10.0,0.0,81,0.03,,,-99.99,,2013-02-24 19:42:00,
2013-02-24 14:52:00,35.0,30.0,30.02,NW,323,10.0,0.0,81,0.03,,,-99.99,,2013-02-24 19:52:00,
2013-02-24 15:02:00,35.0,30.0,30.03,NW,321,7.0,0.0,81,0.03,,,-99.99,,2013-02-24 20:02:00,
2013-02-24 15:11:00,35.0,30.0,30.03,NW,321,7.0,0.0,81,0.03,,,-99.99,,2013-02-24 20:11:00,
2013-02-24 15:22:00,35.0,30.0,30.03,NW,321,7.0,0.0,81,0.03,,,-99.99,,2013-02-24 20:22:00,
2013-02-24 15:32:00,36.0,29.0,30.03,NNW,328,6.0,0.0,74,0.03,,,-99.99,,2013-02-24 20:32:00,
2013-02-24 15:42:00,36.0,29.0,30.03,NNW,328,6.0,0.0,74,0.03,,,-99.99,,2013-02-24 20:42:00,
2013-02-24 15:52:00,36.0,29.0,30.03,NNW,328,6.0,0.0,74,0.03,,,-99.99,,2013-02-24 20:52:00,
2013-02-24 16:02:00,36.0,29.0,30.04,North,350,8.0,0.0,74,0.03,,,-99.99,,2013-02-24 21:02:00,
2013-02-24 16:11:00,36.0,29.0,30.04,North,350,8.0,0.0,74,0.03,,,-99.99,,2013-02-24 21:11:00,
2013-02-24 16:21:00,36.0,29.0,30.04,North,350,8.0,0.0,74,0.03,,,-99.99,,2013-02-24 21:21:00,
2013-02-24 16:32:00,36.0,29.0,30.05,WNW,285,3.0,0.0,74,0.03,,,-99.99,,2013-02-24 21:32:00,
2013-02-24 16:42:00,36.0,29.0,30.05,WNW,285,3.0,0.0,74,0.03,,,-99.99,,2013-02-24 21:42:00,
2013-02-24 16:52:00,36.0,29.0,30.05,WNW,287,6.0,0.0,77,0.03,,,-99.99,,2013-02-24 21:52:00,
2013-02-24 17:01:00,36.0,29.0,30.05,WNW,287,6.0,0.0,77,0.03,,,-99.99,,2013-02-24 22:01:00,
2013-02-24 17:11:00,36.0,29.0,30.05,WNW,287,6.0,0.0,77,0.03,,,-99.99,,2013-02-24 22:11:00,
2013-02-24 17:22:00,36.0,29.0,30.05,WNW,287,6.0,0.0,77,0.03,,,-99.99,,2013-02-24 22:22:00,
2013-02-24 17:31:00,35.0,30.0,30.06,WSW,240,6.0,0.0,83,0.03,,,-99.99,,2013-02-24 22:31:00,
2013-02-24 17:32:00,36.0,30.0,30.05,West,271,2.0,0.0,78,0.03,,,-99.99,,2013-02-24 22:32:00,
2013-02-24 17:42:00,36.0,30.0,30.05,West,271,2.0,0.0,78,0.03,,,-99.99,,2013-02-24 22:42:00,
2013-02-24 17:52:00,35.0,30.0,30.06,WSW,240,6.0,0.0,83,0.03,,,-99.99,,2013-02-24 22:52:00,
2013-02-24 18:02:00,35.0,30.0,30.06,WSW,240,6.0,0.0,83,0.03,,,-99.99,,2013-02-24 23:02:00,
2013-02-24 18:11:00,35.0,30.0,30.06,WSW,240,6.0,0.0,83,0.03,,,-99.99,,2013-02-24 23:11:00,
2013-02-24 18:21:00,35.0,30.0,30.06,WSW,240,6.0,0.0,83,0.03,,,-99.99,,2013-02-24 23:21:00,
2013-02-24 19:02:00,34.0,30.0,30.08,West,276,3.0,0.0,86,0.03,,,-99.99,,2013-02-25 00:02:00,
2013-02-24 19:11:00,34.0,30.0,30.08,West,276,3.0,0.0,86,0.03,,,-99.99,,2013-02-25 00:11:00,
2013-02-24 19:22:00,34.0,30.0,30.08,West,267,3.0,0.0,86,0.03,,,-99.99,,2013-02-25 00:22:00,
2013-02-24 19:32:00,33.0,30.0,30.09,WSW,252,4.0,0.0,87,0.03,,,-99.99,,2013-02-25 00:32:00,
2013-02-24 19:42:00,33.0,30.0,30.09,WSW,252,4.0,0.0,87,0.03,,,-99.99,,2013-02-25 00:42:00,
2013-02-24 19:52:00,33.0,30.0,30.09,WSW,252,4.0,0.0,87,0.03,,,-99.99,,2013-02-25 00:52:00,
2013-02-24 20:01:00,33.0,30.0,30.09,WSW,252,4.0,0.0,87,0.03,,,-99.99,,2013-02-25 01:01:00,
2013-02-24 20:21:00,31.0,29.0,30.10,West,262,0.0,0.0,91,0.03,,,-99.99,,2013-02-25 01:21:00,
2013-02-24 20:32:00,30.0,28.0,30.10,West,262,0.0,0.0,93,0.03,,,-99.99,,2013-02-25 01:32:00,
2013-02-24 20:42:00,30.0,28.0,30.10,West,262,0.0,0.0,93,0.03,,,-99.99,,2013-02-25 01:42:00,
2013-02-24 20:52:00,29.0,27.0,30.10,West,262,0.0,0.0,94,0.03,,,-99.99,,2013-02-25 01:52:00,
2013-02-24 21:01:00,29.0,28.0,30.11,West,262,0.0,0.0,95,0.03,,,-99.99,,2013-02-25 02:01:00,
2013-02-24 21:11:00,29.0,28.0,30.11,West,262,0.0,0.0,95,0.03,,,-99.99,,2013-02-25 02:11:00,
2013-02-24 21:21:00,28.0,27.0,30.12,West,262,0.0,0.0,96,0.03,,,-99.99,,2013-02-25 02:21:00,
2013-02-24 21:32:00,27.0,27.0,30.12,West,262,0.0,0.0,98,0.03,,,-99.99,,2013-02-25 02:32:00,
2013-02-24 21:42:00,27.0,27.0,30.12,West,262,0.0,0.0,98,0.03,,,-99.99,,2013-02-25 02:42:00,
2013-02-24 21:52:00,27.0,27.0,30.12,West,262,0.0,0.0,98,0.03,,,-99.99,,2013-02-25 02:52:00,
2013-02-24 22:01:00,27.0,27.0,30.12,West,262,0.0,0.0,99,0.03,,,-99.99,,2013-02-25 03:01:00,
2013-02-24 22:11:00,27.0,27.0,30.12,West,262,0.0,0.0,99,0.03,,,-99.99,,2013-02-25 03:11:00,
2013-02-24 22:21:00,26.0,26.0,30.12,West,262,0.0,0.0,99,0.03,,,-99.99,,2013-02-25 03:21:00,
2013-02-24 22:32:00,25.0,25.0,30.12,West,262,0.0,0.0,99,0.03,,,-99.99,,2013-02-25 03:32:00,
2013-02-24 22:42:00,25.0,25.0,30.12,West,262,0.0,0.0,99,0.03,,,-99.99,,2013-02-25 03:42:00,
2013-02-24 22:52:00,24.0,24.0,30.12,West,262,0.0,0.0,100,0.03,,,-99.99,,2013-02-25 03:52:00,
2013-02-24 23:02:00,24.0,24.0,30.12,West,262,0.0,0.0,100,0.03,,,-99.99,,2013-02-25 04:02:00,
2013-02-24 23:11:00,24.0,24.0,30.12,West,262,0.0,0.0,100,0.03,,,-99.99,,2013-02-25 04:11:00,
2013-02-24 23:21:00,23.0,23.0,30.11,West,262,0.0,0.0,100,0.03,,,-99.99,,2013-02-25 04:21:00,
2013-02-24 23:32:00,22.0,22.0,30.12,West,262,0.0,0.0,100,0.03,,,-99.99,,2013-02-25 04:32:00,
2013-02-24 23:42:00,22.0,22.0,30.12,West,262,0.0,0.0,100,0.03,,,-99.99,,2013-02-25 04:42:00,
2013-02-24 23:52:00,22.0,22.0,30.12,West,262,0.0,0.0,100,0.03,,,-99.99,,2013-02-25 04:52:00,